Overview Statistics Trail Chart Weather Telemetry Raw packets
 

This is the latest recevied weather packets stored in our database for station/object SV6GMP-10. If no packets are shown the sender has not sent any weather packets the latest 10 day(s).

<< 36 37 38 39 40 >>
Time Temp. Humidity Pressure Rain* Wind** Luminosity Snow
1787777221 32.78° C 63% 1013.7 hPa - - - -
1787776321 32.78° C 63% 1013.7 hPa - - - -
1787775420 32.78° C 64% 1013.5 hPa - - - -
1787774521 32.78° C 64% 1013.6 hPa - - - -
1787773620 33.33° C 64% 1013.3 hPa - - - -
1787772720 33.33° C 64% 1013.4 hPa - - - -
1787771820 32.78° C 63% 1013.4 hPa - - - -
1787770920 33.33° C 61% 1013.5 hPa - - - -
1787770020 33.33° C 61% 1013.1 hPa - - - -
1787769120 32.78° C 64% 1013 hPa - - - -
1787768224 32.78° C 62% 1012.8 hPa - - - -
1787768220 32.78° C 62% 1012.8 hPa - - - -
1787767320 33.33° C 59% 1012.6 hPa - - - -
1787766420 33.33° C 59% 1012.3 hPa - - - -
1787765520 33.33° C 59% 1012.2 hPa - - - -
1787764620 33.33° C 59% 1012.2 hPa - - - -
1787763720 33.33° C 60% 1012.3 hPa - - - -
1787762820 33.33° C 63% 1012.2 hPa - - - -
1787761920 33.33° C 64% 1012.2 hPa - - - -
1787761019 33.33° C 63% 1012.2 hPa - - - -
1787760119 33.33° C 63% 1012 hPa - - - -
1787759219 33.33° C 62% 1011.9 hPa - - - -
1787758319 33.33° C 62% 1012.2 hPa - - - -
1787757419 33.33° C 62% 1012.3 hPa - - - -
1787756519 33.33° C 63% 1012.3 hPa - - - -

* Rain since midnight (hover to see other rain measurements)
** Current wind speed in m/s (hover to see current wind gust speed)